FDX1220 KABQ-KELP

Flight info

Callsign FDX1220
Flight time 0h 36m
Altitude 30000
Route BOSQE3 ONM SLNNK WAZKO1
Aircraft A306/H-SDE3FGHIRWY/LB1

Departure

Time 2026-04-26 03:38
Airport Albuquerque International Sunport (KABQ)

Arrival

Time 2026-04-26 04:14
Airport El Paso International Airport (KELP)
Time Latitude Longitude Altitude Speed Heading
2026-04-26 03:14 35.03166 -106.62327 5330 ft 0 kts 319°
2026-04-26 03:25 35.03162 -106.62322 5330 ft 2 kts 319°
2026-04-26 03:25 35.03149 -106.62310 5336 ft 2 kts 321°
2026-04-26 03:26 35.03134 -106.62303 5334 ft 2 kts 13°
2026-04-26 03:26 35.03119 -106.62310 5335 ft 2 kts 29°
2026-04-26 03:26 35.03105 -106.62321 5337 ft 2 kts 40°
2026-04-26 03:26 35.03093 -106.62335 5337 ft 2 kts 45°
2026-04-26 03:27 35.03091 -106.62338 5337 ft 0 kts 45°
2026-04-26 03:30 35.03101 -106.62326 5337 ft 8 kts 45°
2026-04-26 03:31 35.03173 -106.62235 5336 ft 19 kts 53°
2026-04-26 03:31 35.03217 -106.62073 5333 ft 24 kts 44°
2026-04-26 03:31 35.03363 -106.61903 5334 ft 33 kts 43°
2026-04-26 03:31 35.03529 -106.61699 5338 ft 33 kts 45°
2026-04-26 03:32 35.03692 -106.61505 5338 ft 33 kts 46°
2026-04-26 03:32 35.03884 -106.61395 5334 ft 31 kts 11°
2026-04-26 03:32 35.04096 -106.61382 5331 ft 31 kts
2026-04-26 03:32 35.04254 -106.61308 5319 ft 18 kts 86°
2026-04-26 03:33 35.04243 -106.61150 5334 ft 19 kts 94°
2026-04-26 03:33 35.04242 -106.60996 5335 ft 18 kts 89°
2026-04-26 03:33 35.04242 -106.60828 5337 ft 21 kts 91°
2026-04-26 03:33 35.04240 -106.60642 5341 ft 23 kts 90°
2026-04-26 03:34 35.04254 -106.60448 5342 ft 24 kts 79°
2026-04-26 03:34 35.04252 -106.59142 5333 ft 386 kts 90°
2026-04-26 03:34 35.04258 -106.57698 5329 ft 4 kts 90°
2026-04-26 03:34 35.04259 -106.57652 5333 ft 6 kts 86°
2026-04-26 03:35 35.04283 -106.57580 5336 ft 11 kts 34°
2026-04-26 03:35 35.04360 -106.57585 5334 ft 10 kts 335°
2026-04-26 03:35 35.04407 -106.57634 5333 ft 7 kts 291°
2026-04-26 03:35 35.04408 -106.57665 5335 ft 0 kts 269°
2026-04-26 03:36 35.04408 -106.57721 5333 ft 25 kts 269°
2026-04-26 03:36 35.04412 -106.58154 5333 ft 76 kts 270°
2026-04-26 03:36 35.04423 -106.58972 5334 ft 119 kts 270°
2026-04-26 03:36 35.04426 -106.60153 5341 ft 159 kts 272°
2026-04-26 03:37 35.04438 -106.61635 5471 ft 187 kts 271°
2026-04-26 03:37 35.04422 -106.63217 5943 ft 180 kts 266°
2026-04-26 03:37 35.03930 -106.64590 5522 ft 188 kts 228°
2026-04-26 03:37 35.02817 -106.65507 5252 ft 185 kts 210°
2026-04-26 03:38 35.01615 -106.66183 5567 ft 195 kts 212°
2026-04-26 03:38 35.00406 -106.66968 5972 ft 197 kts 217°
2026-04-26 03:38 34.99258 -106.67895 6368 ft 199 kts 220°
2026-04-26 03:38 34.98131 -106.68981 6720 ft 217 kts 221°
2026-04-26 03:39 34.96917 -106.70130 6962 ft 227 kts 220°
2026-04-26 03:39 34.95618 -106.71318 6561 ft 241 kts 221°
2026-04-26 03:39 34.94205 -106.72583 6032 ft 261 kts 220°
2026-04-26 03:39 34.92664 -106.73929 6643 ft 282 kts 218°
2026-04-26 03:40 34.91015 -106.75339 7385 ft 296 kts 218°
2026-04-26 03:40 34.89291 -106.76776 8253 ft 303 kts 216°
2026-04-26 03:40 34.87521 -106.78214 9189 ft 308 kts 214°
2026-04-26 03:40 34.85715 -106.79642 10148 ft 310 kts 213°
2026-04-26 03:41 34.83914 -106.81027 11073 ft 311 kts 213°
2026-04-26 03:41 34.82003 -106.82168 12241 ft 306 kts 197°
2026-04-26 03:41 34.79834 -106.82265 12908 ft 327 kts 173°
2026-04-26 03:41 34.77617 -106.81268 13280 ft 352 kts 160°
2026-04-26 03:42 34.75280 -106.80193 13626 ft 367 kts 167°
2026-04-26 03:42 34.72753 -106.79450 13987 ft 379 kts 173°
2026-04-26 03:42 34.70116 -106.78942 14520 ft 387 kts 176°
2026-04-26 03:42 34.67419 -106.78564 15177 ft 392 kts 179°
2026-04-26 03:43 34.64680 -106.78259 15844 ft 398 kts 180°
2026-04-26 03:43 34.61908 -106.77994 16545 ft 402 kts 181°
2026-04-26 03:43 34.59096 -106.77748 17221 ft 407 kts 182°
2026-04-26 03:43 34.56256 -106.77512 17870 ft 411 kts 182°
2026-04-26 03:44 34.53389 -106.77280 18456 ft 415 kts 182°
2026-04-26 03:44 34.50494 -106.77051 19017 ft 419 kts 183°
2026-04-26 03:44 34.47607 -106.77159 19528 ft 412 kts 196°
2026-04-26 03:44 34.44849 -106.78023 20088 ft 410 kts 202°
2026-04-26 03:45 34.42107 -106.79038 20602 ft 413 kts 202°
2026-04-26 03:45 34.39350 -106.80056 21111 ft 416 kts 202°
2026-04-26 03:45 34.36605 -106.81056 21592 ft 419 kts 202°
2026-04-26 03:45 34.33804 -106.82086 22065 ft 421 kts 203°
2026-04-26 03:46 34.31034 -106.83252 22557 ft 421 kts 206°
2026-04-26 03:46 34.28298 -106.84520 23069 ft 422 kts 207°
2026-04-26 03:46 34.25564 -106.85841 23471 ft 424 kts 207°
2026-04-26 03:47 34.20051 -106.88517 24359 ft 429 kts 207°
2026-04-26 03:47 34.17272 -106.89843 24756 ft 430 kts 207°
2026-04-26 03:47 34.14478 -106.91163 25128 ft 432 kts 207°
2026-04-26 03:47 34.11671 -106.92480 25497 ft 433 kts 207°
2026-04-26 03:48 34.08846 -106.93800 25833 ft 435 kts 207°
2026-04-26 03:48 34.06019 -106.95118 26154 ft 436 kts 207°
2026-04-26 03:48 34.03182 -106.96438 26492 ft 437 kts 207°
2026-04-26 03:48 34.00339 -106.97761 26816 ft 438 kts 208°
2026-04-26 03:49 33.97536 -106.99069 27183 ft 436 kts 208°
2026-04-26 03:49 33.94702 -107.00391 27641 ft 434 kts 208°
2026-04-26 03:49 33.91889 -107.01698 28077 ft 432 kts 208°
2026-04-26 03:49 33.89098 -107.02993 28534 ft 429 kts 208°
2026-04-26 03:50 33.86323 -107.04279 28961 ft 426 kts 208°
2026-04-26 03:50 33.83560 -107.05560 29371 ft 424 kts 208°
2026-04-26 03:50 33.80807 -107.06838 29750 ft 423 kts 208°
2026-04-26 03:51 33.75259 -107.09423 29784 ft 433 kts 209°
2026-04-26 03:51 33.69608 -107.12051 29732 ft 435 kts 209°
2026-04-26 03:51 33.66824 -107.13324 29732 ft 421 kts 209°
2026-04-26 03:52 33.64104 -107.14567 29736 ft 416 kts 209°
2026-04-26 03:52 33.58717 -107.17055 29735 ft 415 kts 209°
2026-04-26 03:53 33.54232 -107.19133 29778 ft 415 kts 209°
2026-04-26 03:53 33.48845 -107.21619 29812 ft 414 kts 209°
2026-04-26 03:54 33.43459 -107.24098 29859 ft 414 kts 209°
2026-04-26 03:54 33.38088 -107.26566 29893 ft 414 kts 208°
2026-04-26 03:54 33.35284 -107.27528 29920 ft 426 kts 199°
2026-04-26 03:55 33.32316 -107.27797 29931 ft 444 kts 187°
2026-04-26 03:55 33.29208 -107.27175 29928 ft 465 kts 173°
2026-04-26 03:55 33.26148 -107.25739 29939 ft 475 kts 167°
2026-04-26 03:56 33.20104 -107.22497 29934 ft 475 kts 166°
2026-04-26 03:56 33.14067 -107.19291 29915 ft 473 kts 166°
2026-04-26 03:57 33.08101 -107.16149 29867 ft 471 kts 166°
2026-04-26 03:57 33.02113 -107.13007 29360 ft 467 kts 166°
2026-04-26 03:57 32.99118 -107.11444 28407 ft 471 kts 166°
2026-04-26 03:58 32.96103 -107.09871 27143 ft 474 kts 166°
2026-04-26 03:58 32.93087 -107.08296 25533 ft 475 kts 165°
2026-04-26 03:58 32.90070 -107.06719 24624 ft 468 kts 165°
2026-04-26 03:58 32.87159 -107.05183 24306 ft 448 kts 165°
2026-04-26 03:59 32.84320 -107.03700 23835 ft 443 kts 165°
2026-04-26 03:59 32.81537 -107.02254 23347 ft 440 kts 165°
2026-04-26 03:59 32.78745 -107.00804 22800 ft 437 kts 165°
2026-04-26 03:59 32.75969 -106.99361 22301 ft 432 kts 165°
2026-04-26 04:00 32.73229 -106.97936 21860 ft 427 kts 165°
2026-04-26 04:00 32.70520 -106.96529 21407 ft 423 kts 165°
2026-04-26 04:00 32.67830 -106.95133 20941 ft 420 kts 165°
2026-04-26 04:00 32.65166 -106.93752 20473 ft 417 kts 164°
2026-04-26 04:01 32.62512 -106.92377 20005 ft 414 kts 164°
2026-04-26 04:01 32.59878 -106.91013 19545 ft 412 kts 164°
2026-04-26 04:01 32.57286 -106.89672 19085 ft 410 kts 164°
2026-04-26 04:01 32.54675 -106.88321 18624 ft 408 kts 163°
2026-04-26 04:02 32.52074 -106.86976 18131 ft 407 kts 163°
2026-04-26 04:02 32.49477 -106.85635 17627 ft 406 kts 163°
2026-04-26 04:02 32.46896 -106.84302 17156 ft 403 kts 163°
2026-04-26 04:02 32.44330 -106.82977 16698 ft 400 kts 162°
2026-04-26 04:03 32.41787 -106.81666 16242 ft 397 kts 162°
2026-04-26 04:03 32.39264 -106.80365 15788 ft 394 kts 162°
2026-04-26 04:03 32.36793 -106.79092 15335 ft 391 kts 162°
2026-04-26 04:03 32.34304 -106.77810 14874 ft 388 kts 161°
2026-04-26 04:04 32.31834 -106.76540 14418 ft 385 kts 161°
2026-04-26 04:04 32.29389 -106.75282 14134 ft 382 kts 161°
2026-04-26 04:04 32.26940 -106.74026 13888 ft 383 kts 161°
2026-04-26 04:04 32.24508 -106.72776 13454 ft 380 kts 160°
2026-04-26 04:05 32.22094 -106.71536 12909 ft 378 kts 160°
2026-04-26 04:05 32.19693 -106.70302 12403 ft 375 kts 160°
2026-04-26 04:05 32.17305 -106.69075 11900 ft 373 kts 161°
2026-04-26 04:05 32.14964 -106.67874 11411 ft 371 kts 161°
2026-04-26 04:06 32.12603 -106.66667 10921 ft 368 kts 161°
2026-04-26 04:06 32.10248 -106.65530 10578 ft 363 kts 163°
2026-04-26 04:06 32.07890 -106.64425 10367 ft 367 kts 162°
2026-04-26 04:06 32.05626 -106.62982 10112 ft 375 kts 147°
2026-04-26 04:07 32.03810 -106.60737 9847 ft 382 kts 127°
2026-04-26 04:07 32.02716 -106.57909 9656 ft 376 kts 110°
2026-04-26 04:07 32.01993 -106.54993 9388 ft 366 kts 108°
2026-04-26 04:07 32.01283 -106.52147 9073 ft 356 kts 112°
2026-04-26 04:08 32.00196 -106.49604 8893 ft 339 kts 130°
2026-04-26 04:08 31.98617 -106.47681 8814 ft 319 kts 140°
2026-04-26 04:08 31.97362 -106.45485 8341 ft 331 kts 118°
2026-04-26 04:08 31.96438 -106.43094 8655 ft 313 kts 117°
2026-04-26 04:09 31.95557 -106.40836 8987 ft 296 kts 120°
2026-04-26 04:09 31.94602 -106.38697 8892 ft 296 kts 123°
2026-04-26 04:09 31.93675 -106.36543 8859 ft 294 kts 120°
2026-04-26 04:09 31.92779 -106.34359 8489 ft 295 kts 120°
2026-04-26 04:10 31.91911 -106.32211 8337 ft 286 kts 119°
2026-04-26 04:10 31.91079 -106.30125 8132 ft 276 kts 119°
2026-04-26 04:10 31.90246 -106.28105 7527 ft 272 kts 126°
2026-04-26 04:10 31.88977 -106.26544 6872 ft 259 kts 155°
2026-04-26 04:11 31.87354 -106.25945 6495 ft 232 kts 186°
2026-04-26 04:11 31.86017 -106.26514 6259 ft 192 kts 236°
2026-04-26 04:11 31.85717 -106.27892 6039 ft 177 kts 272°
2026-04-26 04:11 31.85917 -106.29355 5319 ft 182 kts 273°
2026-04-26 04:12 31.85908 -106.30792 4977 ft 173 kts 261°
2026-04-26 04:12 31.85533 -106.32096 4674 ft 160 kts 249°
2026-04-26 04:12 31.85002 -106.33179 4485 ft 150 kts 239°
2026-04-26 04:12 31.84351 -106.34155 4254 ft 151 kts 233°
2026-04-26 04:13 31.83652 -106.35074 4169 ft 152 kts 234°
2026-04-26 04:13 31.82978 -106.36022 4125 ft 151 kts 238°
2026-04-26 04:13 31.82302 -106.36968 3987 ft 148 kts 234°
2026-04-26 04:13 31.81690 -106.37843 3954 ft 125 kts 231°
2026-04-26 04:14 31.81275 -106.38422 3961 ft 53 kts 230°
2026-04-26 04:14 31.81112 -106.38650 3964 ft 30 kts 230°
2026-04-26 04:14 31.81001 -106.38806 3964 ft 23 kts 229°
2026-04-26 04:14 31.80910 -106.38937 3965 ft 18 kts 232°
2026-04-26 04:15 31.80828 -106.39021 3962 ft 14 kts 198°
2026-04-26 04:15 31.80757 -106.38973 3964 ft 12 kts 136°
2026-04-26 04:15 31.80693 -106.38902 3960 ft 13 kts 137°
2026-04-26 04:15 31.80687 -106.38822 3959 ft 9 kts 44°
2026-04-26 04:16 31.80724 -106.38782 3961 ft 8 kts 43°
2026-04-26 04:16 31.80785 -106.38714 3961 ft 17 kts 43°
2026-04-26 04:16 31.80887 -106.38591 3962 ft 25 kts 51°
2026-04-26 04:16 31.81017 -106.38410 3960 ft 34 kts 49°
2026-04-26 04:17 31.81185 -106.38178 3955 ft 40 kts 50°
2026-04-26 04:17 31.81358 -106.37935 3952 ft 37 kts 50°
2026-04-26 04:17 31.81518 -106.37710 3953 ft 34 kts 50°
2026-04-26 04:17 31.81666 -106.37505 3952 ft 32 kts 49°
2026-04-26 04:18 31.81803 -106.37311 3946 ft 31 kts 50°
2026-04-26 04:18 31.81931 -106.37127 3943 ft 25 kts 64°
2026-04-26 04:18 31.81891 -106.37046 3943 ft 11 kts 140°
2026-04-26 04:18 31.81847 -106.36992 3945 ft 7 kts 125°
2026-04-26 04:19 31.81821 -106.36961 3947 ft 5 kts 137°
2026-04-26 04:19 31.81797 -106.36935 3949 ft 6 kts 139°
2026-04-26 04:19 31.81772 -106.36911 3950 ft 3 kts 139°
2026-04-26 04:19 31.81759 -106.36897 3951 ft 5 kts 139°
2026-04-26 04:20 31.81753 -106.36892 3952 ft 0 kts 139°